Location: Allos
(44.2333°N, 6.6333°E)
Time: 09:09:42
(UTC+00:00)

deb Kosmos-1275 - Visible Passes

Search period start: 16 June 2021 00:00
Search period end: 26 June 2021 00:00
Orbit: 941 x 1122 km, 83.0° (Epoch: 15 June)

Date Brightness Start Highest point End Pass type
(mag) Time Alt. Az. Time Alt. Az. Time Alt. Az.
16 Jun ? 02:29:38 10° NNE 02:34:48 21° ENE 02:39:57 10° ESE visible
17 Jun ? 03:11:00 10° N 03:17:41 45° ENE 03:24:19 10° SSE visible
18 Jun ? 02:07:53 10° NNE 02:12:37 19° ENE 02:17:20 10° ESE visible
19 Jun ? 02:49:04 10° N 02:55:36 40° ENE 03:02:03 10° SE visible
20 Jun ? 01:46:12 10° NNE 01:50:26 16° ENE 01:54:37 10° E visible
21 Jun ? 02:27:10 10° N 02:33:30 35° ENE 02:39:45 10° SE visible
22 Jun ? 01:24:38 10° NNE 01:28:13 14° ENE 01:31:45 10° E visible
22 Jun ? 03:09:03 10° N 03:16:06 74° E 03:23:00 10° SSE visible
23 Jun ? 02:05:16 10° N 02:11:22 31° ENE 02:17:22 10° SE visible
24 Jun ? 01:03:16 10° NE 01:05:58 12° ENE 01:08:39 10° E visible
24 Jun ? 02:47:03 10° N 02:54:03 65° E 03:00:53 10° SSE visible
25 Jun ? 01:43:25 10° NNE 01:49:13 27° ENE 01:54:56 10° SE visible
